IZ1ERR Weather Reports


time (UTC)temp
C
wind
direction
speed
KPH
gust
KPH
rain 1hr
cm
rain 24hr
cm
rain mn
cm
humidity
%
barometer
mb
20260505062017 10 0 3.2 11.3 0.13 0.61 0.61 94 1012.4
20260505061016 10 0.0 8.0 0.18 0.61 0.61 94 1012.5
20260505060017 10 0.0 4.8 0.23 0.58 0.58 95 1012.5
20260505055016 10 0 1.6 8.0 0.30 0.58 0.58 94 1012.6
20260505054016 10 0.0 0.0 0.36 0.56 0.56 94 1012.6
20260505053016 10 0.0 4.8 0.36 0.53 0.53 94 1012.7
20260505052017 10 0.0 0.0 0.36 0.46 0.46 94 1012.8
20260505051017 10 0.0 1.6 0.33 0.41 0.41 93 1012.8
20260505041016 10 157 1.6 9.7 0.03 0.08 0.08 89 1012.9
20260505040017 11 0.0 6.4 0.03 0.08 0.08 87 1012.9
20260505035016 11 0.0 1.6 0.00 0.05 0.05 87 1012.8
20260505034016 11 0.0 0.0 0.00 0.03 0.03 86 1012.7
20260505033016 11 0.0 0.0 0.00 0.03 0.03 84 1012.8
20260505032016 11 0.0 1.6 0.00 0.03 0.03 83 1012.8
20260505031016 11 0.0 4.8 0.00 0.03 0.03 82 1012.8
20260505030016 11 180 3.2 9.7 0.00 0.03 0.03 81 1012.7
20260505025016 12 157 1.6 8.0 0.00 0.03 0.03 77 1012.7
20260505024016 12 337 3.2 9.7 0.00 0.03 0.03 72 1012.6
20260505023036 12 0 4.8 11.3 0.00 0.03 0.03 72 1012.6
20260505022016 12 337 1.6 11.3 0.00 0.03 0.03 74 1012.7
20260505021016 12 0.0 8.0 0.00 0.03 0.03 76 1012.8
20260505020016 11 0.0 11.3 0.00 0.03 0.03 78 1013.0
20260505015017 11 0 6.4 16.1 0.03 0.03 0.03 79 1013.0
20260505014016 11 337 3.2 12.9 0.03 0.03 0.03 81 1013.2
20260505013016 11 337 1.6 12.9 0.03 0.03 0.03 82 1013.4
20260505012016 11 315 1.6 9.7 0.03 0.03 0.03 81 1013.7
20260505011016 11 0.0 4.8 0.03 0.03 0.03 80 1014.0
20260505010016 12 0.0 0.0 0.00 0.00 0.00 78 1014.3
20260505005016 12 0.0 0.0 0.00 0.00 0.00 76 1014.5
20260505004016 12 270 1.6 4.8 0.00 0.00 0.00 76 1014.8
20260505003016 12 247 1.6 4.8 0.00 0.00 0.00 73 1015.0
20260505002016 12 0.0 1.6 0.00 0.00 0.00 71 1015.0
20260505001016 13 247 4.8 8.0 0.00 0.00 0.00 67 1015.2
20260505000016 13 270 3.2 9.7 0.00 0.00 0.00 66 1015.2
20260504235016 13 315 6.4 17.7 0.00 0.00 0.00 63 1015.1
20260504234036 13 315 4.8 14.5 0.00 0.00 0.00 65 1015.2
20260504233016 13 135 3.2 11.3 0.00 0.00 0.00 65 1015.3
20260504232016 13 0.0 4.8 0.00 0.00 0.00 65 1015.5
20260504231036 13 180 4.8 9.7 0.00 0.00 0.00 70 1015.5
20260504230016 13 315 1.6 14.5 0.00 0.00 0.00 65 1015.6
20260504225016 13 270 1.6 14.5 0.00 0.00 0.00 61 1015.5
20260504224016 12 0.0 0.0 0.00 0.00 0.00 68 1015.6
20260504223016 12 0.0 1.6 0.00 0.00 0.00 75 1015.6
20260504222016 12 0.0 4.8 0.00 0.00 0.00 76 1015.7
20260504221016 12 0.0 4.8 0.00 0.00 0.00 75 1015.8
20260504220036 12 202 3.2 6.4 0.00 0.00 0.00 74 1016.0
20260504215015 13 0.0 6.4 0.00 0.00 0.00 72 1016.3
20260504214015 13 0.0 1.6 0.00 0.00 0.00 72 1016.2
20260504213035 13 247 1.6 4.8 0.00 0.00 0.00 71 1016.2
20260504212015 13 0.0 4.8 0.00 0.00 0.00 71 1016.5
20260504211015 13 180 1.6 8.0 0.00 0.00 0.00 71 1016.5
20260504210016 13 225 1.6 9.7 0.00 0.00 0.00 68 1016.6
20260504205015 13 0.0 1.6 0.00 0.00 0.00 70 1016.7
20260504204015 13 0.0 0.0 0.00 0.00 0.00 67 1016.7
20260504203015 13 0.0 6.4 0.00 0.00 0.00 67 1016.7
20260504202015 13 247 4.8 9.7 0.00 0.00 0.00 68 1016.7
20260504201035 13 270 4.8 12.9 0.00 0.00 0.00 69 1016.7
20260504200015 13 315 3.2 14.5 0.00 0.00 0.00 69 1016.5
20260504195015 13 315 8.0 17.7 0.00 0.00 0.00 70 1016.3
20260504194035 13 315 8.0 22.5 0.00 0.00 0.00 69 1016.3
20260504193015 13 292 8.0 20.9 0.00 0.00 0.00 67 1016.0
20260504192015 13 315 9.7 20.9 0.00 0.00 0.00 68 1015.8
20260504191015 13 292 4.8 17.7 0.00 0.00 0.00 66 1015.9
20260504190015 13 270 3.2 9.7 0.00 0.00 0.00 70 1016.0
20260504185055 13 270 1.6 11.3 0.00 0.00 0.00 70 1016.0
20260504184015 13 270 3.2 9.7 0.00 0.00 0.00 74 1016.1
20260504183015 13 202 9.7 16.1 0.00 0.00 0.00 78 1016.1
20260504182015 13 180 6.4 16.1 0.00 0.00 0.00 77 1016.0
20260504181035 13 247 3.2 9.7 0.00 0.00 0.00 71 1016.0
20260504180015 13 247 4.8 9.7 0.00 0.00 0.00 74 1015.9
20260504175015 14 247 6.4 12.9 0.00 0.00 0.00 75 1015.9
20260504174015 15 225 6.4 12.9 0.00 0.00 0.00 76 1015.9
20260504173015 15 247 6.4 9.7 0.00 0.00 0.00 77 1016.1
20260504172015 15 247 4.8 8.0 0.00 0.00 0.00 77 1015.9
20260504171015 15 247 3.2 8.0 0.00 0.00 0.00 72 1015.9
20260504151015 17 292 3.2 8.0 0.00 0.00 0.00 58 1016.0
20260504141015 18 180 1.6 4.8 0.00 0.00 0.00 58 1016.4
20260504081017 15 0.0 1.6 0.00 0.00 0.00 61 1017.5